Regional Weather Roundup
Issued by NWS

Home | Current Version | Previous Version | Text Only | Print | Product List | Glossary Off
Versions: 1 2 3 4 5 6 7 8 9 10 11 12 13 14 15 16 17 18 19 20 21 22 23 24 25 26 27 28 29 30 31 32 33 34 35 36 37 38 39 40 41 42 43 44 45 46 47 48 49 50

000
ASUS43 KDTX 311401
RWRMI
MICHIGAN HOURLY REGIONAL WEATHER ROUNDUP
NATIONAL WEATHER SERVICE DETROIT/PONTIAC MI
1000 AM EDT FRI OCT 31 2014

NOTE: "FAIR" INDICATES FEW OR NO CLOUDS BELOW 12,000 FEET WITH NO
SIGNIFICANT WEATHER AND/OR OBSTRUCTION TO VISIBILITY.

MIZ047>049-052>055-059>063-066>070-074>076-081>083-311500-
SOUTHEAST LOWER MICHIGAN

CITY           SKY/WX    TMP DP  RH WIND       PRES   REMARKS
ADRIAN         LGT RAIN  42  40  92 NW10      29.90S FOG
ALMA           LGT RAIN  41  39  93 NW6       29.92R
ANN ARBOR      LGT RAIN  43  39  86 W7        29.89S FOG
BAD AXE        LGT RAIN  42  42 100 CALM      29.90S
CARO           LGT RAIN  42  40  94 CALM      29.90S
DETROIT CITY   LGT RAIN  45  39  79 SW5       29.90S
DETROIT        LGT RAIN  43  40  89 SW7       29.90S
FLINT          CLOUDY    43  38  82 N7        29.90F
GROSSE ILE     RAIN      43  39  87 W5        29.89S
HILLSDALE      MIX PCPN  40  39  97 NW9       29.91R WCI  34
HOWELL         DRIZZLE   40  38  93 NW6       29.89S

CITY           SKY/WX    TMP DP  RH WIND       PRES   REMARKS
JACKSON        LGT RAIN  40  38  93 NW9       29.90S WCI  34
LAMBERTVILLE   LGT RAIN  43  39  87 SW5       29.90F
LANSING        LGT RAIN  40  38  93 NW7       29.92S
LAPEER         RAIN      41  40  95 N5        29.89S
MASON          RAIN      40  37  92 NW8       29.91R WCI  34
MONROE         DRIZZLE   43  39  87 W3        29.88F
MT. CLEMENS    LGT RAIN  44  43  98 SW6       29.87S
PONTIAC        LGT RAIN  41  38  89 W7        29.87F
PORT HOPE        N/A     44  40  85 VRB3      29.88S
PORT HURON     RAIN      43  41  93 CALM      29.89F
TRI CITIES     LGT RAIN  42  39  89 N12       29.92R
TROY           LGT RAIN  44  40  87 CALM      29.90S
SAGINAW HB     LGT RAIN  43  43 100 NW9       29.90S
$$
MIZ043>046-050>051-056>058-064>065-071>073-077>080-311500-
SOUTHWEST LOWER MICHIGAN

CITY           SKY/WX    TMP DP  RH WIND       PRES   REMARKS
BATTLE CREEK   CLOUDY    40  36  86 W6        29.93F
BENTON HARBOR  CLOUDY    40  35  83 N17G36    29.97F WCI  31
BIG RAPIDS     LGT SNOW  35  35 100 N15G24    29.94R WCI  25
COLDWATER      LGT RAIN  40  38  92 NW8       29.93S
FREMONT        LGT RAIN  36  33  92 N18G33    29.95R WCI  25
HOLLAND        LGT RAIN  42  37  82 VRB6      29.94F
GRAND RAPIDS   CLOUDY    40  40 100 N8        29.93R WCI  34
IONIA          CLOUDY    41  39  93 NW5       29.91S
KALAMAZOO      CLOUDY    40  36  86 W8        29.94F WCI  34
LUDINGTON      LGT RAIN  37  35  92 N18G30    30.05R WCI  27
MARSHALL       DRIZZLE   38  37  93 W8        29.92S WCI  32
MOUNT PLEASANT DRIZZLE   40  38  93 NW5       29.92R
MUSKEGON       LGT RAIN  38  33  82 N17G31    29.97R WCI  28
SOUTH HAVEN    LGT RAIN  41  37  86 N24G39    29.96S
$$
MIZ016>042-311500-
NORTHERN LOWER MICHIGAN

CITY           SKY/WX    TMP DP  RH WIND       PRES   REMARKS
ALPENA         LGT SNOW  33  32  96 N24G31    30.03R FOG     WCI  20
BEAVER ISLAND  CLOUDY    34  27  76 N17G30    30.19R WCI  23
BELLAIRE       LGT SNOW  34  31  88 N13G26    30.10R WCI  25
CADILLAC       SNOW      32  30  94 N10G22    29.99R VSB 1/2 WCI  23
CHARLEVOIX     LGT SNOW  32  31  93 N26G33    30.16R WCI  19
FRANKFORT      MIX PCPN  35  32  91 N15G28    30.10R WCI  25
GAYLORD        SNOW      30  29  96 N13G24    30.04R VSB 1/4 WCI  20
GRAYLING       LGT SNOW  33  31  92 N13G28    30.02R WCI  24
HARBOR SPRINGS LGT SNOW  32  28  88 N14G22    30.12R WCI  22
HOUGHTON LAKE  CLOUDY    35  32  88 N18G24    29.97R WCI  24
MANISTEE       CLOUDY    36  30  80 N20G28    30.08R WCI  25
OSCODA         LGT RAIN  39  38  94 N22G31    29.93R WCI  29
PELLSTON       LGT SNOW  31  28  89 N24G33    30.15R VSB 3/4 WCI  17
TRAVERSE CITY  FLURRIES  37  31  78 N20G31    30.08R WCI  27
$$
MIZ007>008-015-311500-
EASTERN UPPER MICHIGAN

CITY           SKY/WX    TMP DP  RH WIND       PRES   REMARKS
KINROSS        CLOUDY    30  27  86 N22       30.17R WCI  17
MACKINAC ISLAN CLOUDY    32  28  86 N23G36    30.15R WCI  19
NEWBERRY       CLOUDY    30  24  78 N21G28    30.21R WCI  17
S. S. MARIE    CLOUDY    31  22  69 N13G24    30.19R WCI  21
MUNISING         N/A     37  26  64 N33G46    30.29R WCI  24
$$
MIZ004>006-011>014-085-311500-
CENTRAL UPPER MICHIGAN

CITY           SKY/WX    TMP DP  RH WIND       PRES   REMARKS
MANISTIQUE     PTSUNNY   31  24  72 N16G29    30.23R WCI  20
ESCANABA       CLOUDY    32  25  74 N14G21    30.27R WCI  22
MENOMINEE      CLOUDY    34  21  60 N21G30    30.26R WCI  22
SAWYER-GWINN   LGT SNOW  28  25  86 N29G35    30.28R WCI  13
$$
MIZ001>003-009>011-084-311500-
WESTERN UPPER MICHIGAN

CITY           SKY/WX    TMP DP  RH WIND       PRES   REMARKS
IRON MOUNTAIN  PTSUNNY   30  22  72 N22G32    30.29R WCI  17
HOUGHTON       CLOUDY    30  20  66 NE12G21   30.40R WCI  20
COPPER HARBOR    N/A     35  25  66 E26G36    30.40R WCI  22
IRONWOOD       CLOUDY    28  27  93 N10G17    30.43R WCI  19
$$

ABBREVIATIONS USED IN REMARKS
   TC - TEMPERATURE IN CELSIUS
  WCI - WIND CHILL INDEX
   HX - HEAT INDEX
  VSB - VISIBILITY




USA.gov is the U.S. government's official web portal to all federal, state and local government web resources and services.